Regional Weather Roundup
Issued by NWS

Home | Current Version | Previous Version | Text Only | Print | Product List | Glossary Off
Versions: 1 2 3 4 5 6 7 8 9 10 11 12 13 14 15 16 17 18 19 20 21 22 23 24 25 26 27 28 29 30 31 32 33 34 35 36 37 38 39 40 41 42 43 44 45 46 47 48 49 50

000
ASUS43 KFSD 210902
RWRSD

WEATHER ROUNDUP FOR SOUTH DAKOTA
NATIONAL WEATHER SERVICE SIOUX FALLS SD
400 AM CDT MON AUG 21 2017

NOTE: "FAIR" INDICATES FEW OR NO CLOUDS BELOW 12,000 FEET WITH NO
SIGNIFICANT WEATHER AND/OR OBSTRUCTIONS TO VISIBILITY.


SDZ001>005-009-010-012>017-211000-
NORTHWEST AND NORTH CENTRAL SOUTH DAKOTA

CITY           SKY/WX    TMP DP  RH WIND       PRES   REMARKS
BUFFALO          N/A     60  51  72 S15       29.91R
FAITH            N/A     58  58 100 NE9       30.00R
MOBRIDGE       TSTM      58  54  86 SE15      29.96F
$$

SDZ012>016-024>037-041>051-057-063-072>074-211000-
SOUTHWEST AND SOUTH CENTRAL SOUTH DAKOTA

CITY           SKY/WX    TMP DP  RH WIND       PRES   REMARKS
RAPID CTY ARPT MOCLDY    58  52  80 NE9       29.98S
PIERRE         PTCLDY    61  54  77 NE6       29.96F
CUSTER         CLEAR     60  57  89 VRB6      30.10F
ELLSWORTH AFB  CLOUDY    63  54  71 E7        29.98
PHILIP         PTCLDY    62  55  77 SE8       29.94F
PINE RIDGE     MOCLDY    69  67  93 VRB3G17   29.97F
SPEARFISH      FAIR      59  54  82 W8        30.02S
WINNER         FAIR      63  61  93 N7        29.97S
$$

SDZ004>011-016>023-039-040-211000-
NORTHEAST SOUTH DAKOTA

CITY           SKY/WX    TMP DP  RH WIND       PRES   REMARKS
ABERDEEN       PTCLDY    54  53  97 CALM      30.00F
WATERTOWN      CLEAR     59  54  83 E6        30.01S
BROOKINGS      CLOUDY    63  59  87 E6        30.02R
SISSETON         N/A     54  52  93 CALM      30.01R
$$

SDZ017-020-022-023-036>040-048>070-211000-
SOUTHEAST SOUTH DAKOTA

CITY           SKY/WX    TMP DP  RH WIND       PRES   REMARKS
SIOUX FALLS    PTCLDY    67  64  90 E10       29.98F
HURON          CLEAR     58  55  90 CALM      29.99R
CHAMBERLAIN    CLEAR     63  58  84 N5        29.98R
MITCHELL       CLEAR     60  58  92 N6        29.98R
YANKTON        CLOUDY    69  67  93 E7        29.96R
$$

ABBREVIATIONS USED IN REMARKS
   TC - TEMPERATURE IN CELSIUS
  WCI - WIND CHILL INDEX
   HX - HEAT INDEX
  VSB - VISIBILITY





USA.gov is the U.S. government's official web portal to all federal, state and local government web resources and services.